Tracking 22438 objects as of 24-Feb-2021
HD Live streaming from Space Station
objects crossing your sky now

OBJECT D

Track OBJECT D now!
10-day predictions


NORAD ID: 45019
Int'l Code: 2020-003D
Perigee: 480.4 km
Apogee: 496.0 km
Inclination: 97.3 °
Period: 94.2 minutes
Semi major axis: 6859 km
RCS: Unknown
Launch date: January 15, 2020
Source: (TBD)
Launch site: Taiyaun Space Center, China (TSC)
aabbcc
Your satellite tracking list
Your tracking list is empty




NASA's NSSDC Master Catalog

Two Line Element Set (TLE):
1 45019U 20003D   21055.45308156  .00002029  00000-0  76275-4 0  9993
2 45019  97.2853 122.5215 0011319 275.9264  94.7455 15.28248392 62032
Source of the keplerian elements: AFSPC